星链-34190 (STARLINK-34190)

导读

STARLINK-34190是美国太空探索技术公司(SpaceX)星链(Starlink)互联网卫星星座的一员,于2025年5月21日由美国发射升空。星链项目旨在搭建全球覆盖的太空互联网通信系统,该卫星被部署至近地轨道,助力完成星链星座组网,为全球提供低成本、高性能的宽带互联网接入服务,丰富了星链星座的卫星规模,进一步推进全球卫星互联网覆盖建设。

基本信息
目录编号:
64078
目录名称:
STARLINK-34190
国际标识:
2025-107Q
轨道中心:
EARTH
卫星名称:
星链-34190
卫星全名:
星链-34190 (STARLINK-34190)
卫星状态:
在轨 (已飞行389 天)
发射日期:
2025-05-21 UTC
国别 :
美国 (US)
星等 :
--
轨道信息
数据来源 国际轨道数据
星历时间: 2026-06-14T05:21:08+0800
4小时前
查看轨道信息
半长轴: 6861.078km
偏心率: 0.0002263
轨道倾角: 43.002°
近地点辐角 280.428°
升交点赤经 18.208°
平近点角 79.632°
近地点: 481.388km
远地点: 484.494km
周期: 94.265分钟
每日圈数: 15.276162
详细信息
固有亮度:
5
最大亮度:
2.5
卫星平台:
Starlink V1.0
覆盖范围:
全球
运营商:
太空探索技术公司
运营商所在国:
美国
制造商(研发单位):
太空探索技术公司
制造商所在国:
美国
使用方式:
暂无
卫星简介
Starlink 计划是 SpaceX 推出的全球卫星互联网项目,通过发射低轨道卫星,为全球尤其是偏远地区提供高速、低延迟的互联网服务。自 2019 年起,Starlink 已部署数千颗卫星,旨在缩小全球数字鸿沟,推动互联网普及。该项目还为军事、航空等行业提供通信支持,带来广泛经济效益。
2D轨道图
3D轨道图
轨道高度分析图
轨道倾角分析图
轨道综合分析图
查看轨道综合分析图